Regional Weather Roundup
Issued by NWS

Home | Current Version | Previous Version | Graphics & Text | Print | Product List | Glossary On
Versions: 1 2 3 4 5 6 7 8 9 10 11 12 13 14 15 16 17 18 19 20 21 22 23 24 25 26 27 28 29 30 31 32 33 34 35 36 37 38 39 40 41 42 43 44 45 46 47 48 49 50
000
ASUS43 KLOT 151000
RWRIL

ILLINOIS REGIONAL WEATHER ROUNDUP
NATIONAL WEATHER SERVICE CHICAGO/ROMEOVILLE IL
500 AM CDT MON SEP 15 2014

NOTE: "FAIR" INDICATES FEW OR NO CLOUDS BELOW 12,000 FEET WITH NO
SIGNIFICANT WEATHER AND/OR OBSTRUCTIONS TO VISIBILITY.

* THESE STATIONS ARE NOT UNDER NWS QUALITY CONTROL. THEY ALSO MAY NOT
  REPORT WEATHER SUCH AS PRECIPITATION OR FOG.

ILZ001-002-007-009-015-016-024-151100-
NORTHWEST ILLINOIS

CITY           SKY/WX    TMP DP  RH WIND       PRES   REMARKS
MOLINE         CLOUDY    56  50  80 E5        30.12F
STERLING*      CLOUDY    54  46  76 CALM      30.15R
$$

ILZ003-004-008-010-011-017-018-151100-
NORTH CENTRAL ILLINOIS

CITY           SKY/WX    TMP DP  RH WIND       PRES   REMARKS
ROCKFORD       NOT AVBL
$$

ILZ005-006-012>014-019>023-151100-
NORTHEAST ILLINOIS

CITY           SKY/WX    TMP DP  RH WIND       PRES   REMARKS
CHICAGO-OHARE  CLOUDY    53  46  77 CALM      30.15S
CHICAGO-MIDWAY MOCLDY    56  47  71 S3        30.15S
AURORA         CLOUDY    53  46  77 CALM      30.17R
WAUKEGAN       CLOUDY    52  46  80 S3        30.13F
DUPAGE AIRPORT CLOUDY    52  49  89 SW3       30.15S
WHEELING       CLOUDY    54  47  77 CALM      30.16F
NORTHERLY ISL    N/A     58  44  60 S7          N/A
$$

LMZ740>746-151100-
SOUTHERN LAKE MICHIGAN

STATION/POSITION SKY/WX   TEMP    WIND        PRES    VSBY  WAVE
                          AIR SEA DIR/SP/G                  HT/PER
                          (F)     (DEG/KT/KT) (MB)    (MI)  (FT/S)
SOUTHERN BUOY              63 64  230/ 10/ 12 1020.9F         1/ 3
WAUKEGAN HARBOR            56     260/  6/  9   N/A
HARRISON CRIB              58     180/  9/ 10   N/A
BURNHAM HARBOR             58     210/  4/  6   N/A
CALUMET HARBOR             55     200/  3/  5 1019.7F
MICHIGAN CITY              54     140/  7/  9   N/A
MICHIGAN CITY 6N           58 63  180/ 10/ 12   N/A           1/ 2
ST. JOSEPH                 60 67  160/ 12/ 14   N/A           1/ 3
$$

ILZ025>027-034>036-040-047-049-050-058-095>099-151100-
WEST-CENTRAL ILLINOIS

CITY           SKY/WX    TMP DP  RH WIND       PRES   REMARKS
QUINCY         CLOUDY    59  51  75 SE3       30.12S
$$

ILZ028>032-037-038-041>044-048-051>054-059>061-151100-
CENTRAL ILLINOIS

CITY           SKY/WX    TMP DP  RH WIND       PRES   REMARKS
DECATUR        CLOUDY    54  50  86 CALM      30.18S
PEORIA         CLOUDY    57  49  74 S3        30.16F
SPRINGFIELD    CLOUDY    57  51  80 S5        30.17S
TAYLORVILLE    NOT AVBL
$$

ILZ033-039-045-046-055>057-062-063-151100-
EAST-CENTRAL ILLINOIS

CITY           SKY/WX    TMP DP  RH WIND       PRES   REMARKS
CHAMPAIGN      MOCLDY    51  49  92 CALM      30.19R
MATTOON        PTCLDY    51  45  79 S5        30.18R
$$

ILZ079-100>102-151100-
SOUTHWEST ILLINOIS

CITY           SKY/WX    TMP DP  RH WIND       PRES   REMARKS
BELLEVILLE     CLOUDY    55  53  93 CALM      30.16S
CAHOKIA*       CLOUDY    58  53  84 S3        30.16S
$$

ILZ064>066-069>071-074>076-080>082-084>086-088>090-092>094-151100-
SOUTH-CENTRAL ILLINOIS

CITY           SKY/WX    TMP DP  RH WIND       PRES   REMARKS
CARBONDALE     PTCLDY    51  49  92 CALM      30.18R
MT. VERNON     MOCLDY    48  45  87 CALM      30.19R
$$

ILZ067-068-072-073-078-083-087-091-151100-
SOUTHEAST ILLINOIS

CITY           SKY/WX    TMP DP  RH WIND       PRES   REMARKS
LAWRENCEVILLE  PTCLDY    47  46  97 NE3       30.20S FOG
$$

ABBREVIATIONS USED IN REMARKS
   TC - TEMPERATURE IN CELSIUS
  WCI - WIND CHILL INDEX
   HX - HEAT INDEX
  VSB - VISIBILITY
$$




USA.gov is the U.S. government's official web portal to all federal, state and local government web resources and services.